Regional Weather Roundup
Issued by NWS Jackson, KY

Home | Current Version | Previous Version | Text Only | Print | Product List | Glossary Off
Versions: 1 2 3 4 5 6 7 8 9 10 11 12 13 14 15 16 17 18 19 20 21 22 23 24 25 26 27 28 29 30 31 32 33 34 35 36 37 38 39 40 41 42 43 44 45 46 47 48 49 50

000
ASUS43 KJKL 171210
RWRJKL

EAST KENTUCKY HOURLY WEATHER ROUNDUP
NATIONAL WEATHER SERVICE JACKSON KY
800 AM EDT FRI APR 17 2015

NOTE: "FAIR" INDICATES FEW OR NO CLOUDS BELOW 12,000 FEET WITH
NO SIGNIFICANT WEATHER AND/OR OBSTRUCTIONS TO VISIBILITY.

* THESE REPORTS ARE NOT UNDER NWS QUALITY CONTROL AND MAY NOT
  REPORT WEATHER SUCH AS PRECIPITATION AND FOG.

KYZ079-080-083-085-087-088-110-112-115-119-120-171300
...EASTERN KENTUCKY...

CITY           SKY/WX    TMP DP  RH WIND       PRES   REMARKS
JACKSON        CLOUDY    58  55  90 CALM      30.16R
6HR MIN TEMP:  57; 6HR MAX TEMP:  61;

LONDON         CLOUDY    58  53  84 S5        30.16R
6HR MIN TEMP:  52; 6HR MAX TEMP:  58;

SOMERSET*      CLOUDY    55  55 100 SW3       30.17R
MONTICELLO*    CLOUDY    58  58 100 CALM      30.18R
6HR MIN TEMP:  51; 6HR MAX TEMP:  58;

MIDDLESBORO*   CLOUDY    57  57  99 CALM      30.17S
6HR MIN TEMP:  54; 6HR MAX TEMP:  57;

HARLAN APT*    CLOUDY    55  55 100 CALM      30.17S
HAZARD APT*    CLOUDY    57  57 100 CALM      30.15
BLACK MTN*       N/A     52  52 100 S2          N/A
PIKEVILLE APT* CLOUDY    59  54  82 CALM      30.15R
BIG SANDY*     CLOUDY    58  55  89 CALM      30.14S
6HR MIN TEMP:  58; 6HR MAX TEMP:  60;

MOREHEAD APT*    N/A     61  57  88 SW9       30.15R
$$

KYZ035-036-041-042-044-050-067-078-099-171300
...CENTRAL KENTUCKY...

CITY           SKY/WX    TMP DP  RH WIND       PRES   REMARKS
MT STERLING*   CLOUDY    59  55  88 SW8       30.15R
FLEMING/MASON* CLOUDY    61  57  88 W6        30.14R
DANVILLE*      CLOUDY    57  55  94 CALM      30.16R
RICHMOND*      CLOUDY    59  55  88 CALM      30.14R
LEXINGTON      CLOUDY    59  58  96 S5        30.13S
6HR MIN TEMP:  57; 6HR MAX TEMP:  60;

FRANKFORT      CLOUDY    60  59  96 VRB3      30.12R
6HR MIN TEMP:  56; 6HR MAX TEMP:  62;

$$

KYZ091>093-OHZ055-061-077-WVZ005-015-034-035-042-171300
...SOUTHERN OHIO/WEST VIRGINIA...

CITY           SKY/WX    TMP DP  RH WIND       PRES   REMARKS
COVINGTON      PTSUNNY   59  57  93 CALM      30.11R FOG
COLUMBUS       MOSUNNY   58  56  93 NW6       30.08R
DAYTON         FOG       54  53  97 NW8       30.12R VSB 3/4
WILMINGTON     MOSUNNY   58  55  90 W3        30.10R FOG
HUNTINGTON     CLOUDY    58  55  90 S3        30.11R
CHARLESTON     PTSUNNY   58  52  80 CALM      30.11S
PINEVILLE*     CLOUDY    55  55  99 MISG      30.21R
BECKLEY        CLOUDY    56  51  84 SW3       30.17R
BLUEFIELD      CLOUDY    57  51  80 SW5       30.19R
$$

VAZ002-007-008-TNZ017-027-036-066-071-171300
...SOUTHWEST VIRGINIA/EAST TENNESSEE...

CITY           SKY/WX    TMP DP  RH WIND       PRES   REMARKS
WISE*          CLOUDY    55  54  94 SW5       30.20R
JONESVILLE*    CLOUDY    54  54 100 CALM      30.20R
ABINGDON*      CLOUDY    57  55  91 CALM      30.18S
BRISTOL        CLOUDY    56  53  90 CALM      30.19R
KNOXVILLE      DRIZZLE   59  58  96 CALM      30.15S FOG
OAK RIDGE      CLOUDY    60  57  89 CALM      30.17R
CROSSVILLE     CLOUDY    58  55  90 S3        30.16S
NASHVILLE      MOCLDY    59  57  93 S5        30.12S
$$

...KEY TO REMARKS...
VSB - VISIBILITY IN MILES
WCI - WIND CHILL INDEX
HX  - HEAT INDEX

$$


USA.gov is the U.S. government's official web portal to all federal, state and local government web resources and services.